Blythe, CA

1:22 PM PST on February 23, 2018 (GMT -0800)
Blythe

Weather History for KBLH - September, 2013

Change the Weather History Date:

Wednesday, September 11, 2013

  Actual Average Record
Temperature  
Mean Temperature 84 °F -  
Max Temperature 96 °F 101 °F 111 °F (1971)
Min Temperature 73 °F 75 °F 62 °F (1986)
Cooling Degree Days 20    
Growing Degree Days 34 (Base 50)    
Moisture  
Dew Point 65 °F    
Average Humidity 54    
Maximum Humidity 87    
Minimum Humidity 30    
Precipitation  
Precipitation 0.00 in - - ()
Sea Level Pressure  
Sea Level Pressure 29.83 in    
Wind  
Wind Speed 5 mph (East)    
Max Wind Speed 10 mph    
Max Gust Speed -    
Visibility 10 miles    
Events      
Averages and records for this station are not official NWS values.
T = Trace of Precipitation, MM = Missing Value Source: NWS Daily Summary

Daily Weather History Graph

Daily Weather History Graph

Search for Another Location

Airport or City:

Trip Planner

Search our weather history database for the weather conditions in past years. The results will help you decide how hot, cold, wet, or windy it might be!

Date:

Astronomy

Sep. 11, 2013 Rise Set
Actual Time 6:19 AM PDT 6:50 PM PDT
Civil Twilight 5:54 AM PDT 7:15 PM PDT
Nautical Twilight 5:25 AM PDT 7:44 PM PDT
Astronomical Twilight 4:55 AM PDT 8:14 PM PDT
Moon 12:33 PM PDT (9/11) 11:09 PM PDT (9/11)
Length of Visible Light 13h 20m
Length of Day
12h 30m
Waxing Crescent, 40% of the Moon is Illuminated
Sep 11
Waxing Crescent
Sep 12
First Quarter
Sep 19
Full
Sep 26
Last Quarter
Oct 4
New

Hourly Weather History & Observations

Time (PDT) Temp. Heat Index Dew Point Humidity Pressure Visibility Wind Dir Wind Speed Gust Speed Precip Events Conditions
12:52 AM 78.1 °F - 68.0 °F 71% 29.82 in 10.0 mi NE 4.6 mph - N/A   Clear
1:52 AM 77.0 °F - 66.9 °F 71% 29.82 in 10.0 mi ENE 5.8 mph - N/A   Clear
2:52 AM 77.0 °F - 66.9 °F 71% 29.82 in 10.0 mi East 3.5 mph - N/A   Clear
3:52 AM 73.9 °F - 69.1 °F 85% 29.82 in 10.0 mi East 3.5 mph - N/A   Clear
4:52 AM 73.0 °F - 69.1 °F 87% 29.83 in 10.0 mi ENE 5.8 mph - N/A   Clear
5:52 AM 73.0 °F - 69.1 °F 87% 29.84 in 10.0 mi NNE 3.5 mph - N/A   Clear
6:52 AM 73.9 °F - 68.0 °F 82% 29.86 in 10.0 mi ENE 3.5 mph - N/A   Scattered Clouds
7:52 AM 79.0 °F - 66.9 °F 66% 29.88 in 10.0 mi East 3.5 mph - N/A   Clear
8:52 AM 82.0 °F 84.1 °F 66.0 °F 58% 29.89 in 10.0 mi ESE 4.6 mph - N/A   Clear
9:52 AM 84.0 °F 87.0 °F 68.0 °F 58% 29.90 in 10.0 mi East 5.8 mph - N/A   Clear
10:52 AM 87.1 °F 89.9 °F 66.9 °F 51% 29.89 in 10.0 mi SE 6.9 mph - N/A   Clear
11:52 AM 90.0 °F 91.7 °F 64.9 °F 43% 29.88 in 10.0 mi South 10.4 mph - N/A   Clear
12:52 PM 91.0 °F 93.0 °F 64.9 °F 42% 29.86 in 10.0 mi Variable 5.8 mph - N/A   Clear
1:52 PM 93.9 °F 94.0 °F 61.0 °F 33% 29.83 in 10.0 mi SSE 6.9 mph - N/A   Clear
2:52 PM 95.0 °F 95.6 °F 62.1 °F 33% 29.81 in 10.0 mi South 4.6 mph - N/A   Clear
3:52 PM 96.1 °F 96.0 °F 60.1 °F 30% 29.79 in 10.0 mi Variable 5.8 mph - N/A   Clear
4:52 PM 96.1 °F 96.0 °F 60.1 °F 30% 29.78 in 10.0 mi ESE 5.8 mph - N/A   Clear
5:52 PM 96.1 °F 96.0 °F 60.1 °F 30% 29.77 in 10.0 mi East 6.9 mph - N/A   Clear
6:52 PM 93.0 °F 94.2 °F 63.0 °F 37% 29.76 in 10.0 mi East 5.8 mph - N/A   Clear
7:52 PM 90.0 °F 90.6 °F 63.0 °F 40% 29.78 in 10.0 mi East 4.6 mph - N/A   Clear
8:52 PM 88.0 °F 89.3 °F 64.0 °F 45% 29.79 in 10.0 mi East 3.5 mph - N/A   Clear
9:52 PM 87.1 °F 87.5 °F 62.1 °F 43% 29.80 in 10.0 mi Calm Calm - N/A   Clear
10:52 PM 82.9 °F 84.6 °F 64.9 °F 54% 29.81 in 10.0 mi NE 3.5 mph - N/A   Clear
11:52 PM 82.9 °F 85.0 °F 66.0 °F 56% 29.81 in 10.0 mi Calm Calm - N/A   Clear